Regional Weather Roundup
Issued by NWS New Orleans/Baton Rouge, LA

Home | Current Version | Previous Version | Text Only | Print | Product List | Glossary Off
Versions: 1 2 3 4 5 6 7 8 9 10 11 12 13 14 15 16 17 18 19 20 21 22 23 24 25 26 27 28 29 30 31 32 33 34 35 36 37 38 39 40 41 42 43 44 45 46 47 48 49 50

485
ASUS44 KLIX 221101
RWRLIX
NEW ORLEANS REGIONAL WEATHER ROUNDUP
NATIONAL WEATHER SERVICE NEW ORLEANS LA
600 AM CDT WED OCT 22 2014

NOTE: "FAIR" INDICATES FEW OR NO CLOUDS BELOW 12,000 FEET WITH NO
      SIGNIFICANT WEATHER AND/OR OBSTRUCTIONS TO VISIBILITY.
      SKY/WX - SKY CONDITION AND SIGNIFICANT WEATHER.
      TMP - AIR TEMPERATURE.     DP    - DEWPOINT TEMPERATURE.
      RH  - RELATIVE HUMIDITY.   PRES  - PRESSURE.
      HI  - HEAT INDEX.          WCI   - WIND CHILL INDEX.

*  THESE STATIONS ARE NOT NWS OR FAA STATIONS AND ARE NOT UNDER
   NWS QUALITY CONTROL.

LAZ038-040-048-061>063-065>067-069-221200-
SOUTHEAST LOUISIANA

CITY           SKY/WX    TMP DP  RH WIND       PRES   REMARKS
N.O. AUDUBON   NOT AVBL
N.O. INTL ARPT CLEAR     67  59  75 NE8       30.04R
N.O. LAKEFRONT CLEAR     69  61  75 NE16      30.04S
N.O. DOWNTOWN*   N/A     66  55  68 NE6       30.04S
SLIDELL        CLEAR     53  50  89 N3        30.05R
BATON ROUGE    CLEAR     58  55  90 NE7       30.06R
BOOTHVILLE     CLEAR     72  63  73 NE8       30.02R
BELLE CHASSE   CLEAR     56  53  90 NE3       30.03R
BOGALUSA*        N/A     53  50  90 CALM      30.08S FOG
NEW ROADS*       N/A     55  54  98 CALM      30.07R FOG
GONZALES*        N/A     58  58 100 CALM      30.05R
HAMMOND*       NOT AVBL
HOUMA*         CLEAR     60  59  96 N3        30.03R FOG
PORT FOURCHON* SUNNY     68  64  88 NE10      30.05R

$$

MSZ070-080>082-221200-
SOUTHERN MISSISSIPPI

CITY           SKY/WX    TMP DP  RH WIND       PRES   REMARKS
MCCOMB         CLEAR     59  52  77 NE3       30.08R
GULFPORT       PTCLDY    59  53  80 N6        30.04R
BILOXI         CLEAR     59  54  84 NE5       30.05R
PASCAGOULA     CLEAR     52  51  97 N5        30.04R

$$

COASTAL OBSERVATIONS
LAKE AND NEARSHORE STATIONS

STATION/POSITION TIME  TEMP    WIND        PRES    WAVE
                       AIR SEA DIR/SP/G            HT/PER
                 (UTC) (F)     (DEG/KT/KT) (MB)    (FT/S)
PASCAGOULA       1000   60      10/  7/  9 1016.3
WAVELAND YACHT   1000   64      30/ 11/ 14 1016.3
GRAND ISLE       1000   71 75   40/  9/ 13 1016.7
SOUTHWEST PASS   1000   73 83              1015.9
NEW CANAL        1000   69 71   50/ 13/ 15 1017.3
SHELL BEACH      1000   71 69   30/ 12/ 13 1016.7

OFFSHORE STATIONS

STATION/POSITION TIME  TEMP    WIND        PRES    WAVE
                       AIR SEA DIR/SP/G            HT/PER
                 (UTC) (F)     (DEG/KT/KT) (MB)    (FT/S)
64 S DAUPHIN ISL 1004   76 79   50/ 16/ 17 1016.1    2/ 4

$$




USA.gov is the U.S. government's official web portal to all federal, state and local government web resources and services.